Regional Weather Roundup
Issued by NWS Albany, NY

Home | Current Version | Previous Version | Graphics & Text | Print | Product List | Glossary On
Versions: 1 2 3 4 5 6 7 8 9 10 11 12 13 14 15 16 17 18 19 20 21 22 23 24 25 26 27 28
000
ASUS41 KALY 192110
RWRALY

NEW YORK STATE HOURLY WEATHER ROUNDUP
NATIONAL WEATHER SERVICE ALBANY NY
500 PM EDT THU APR 19 2018

NOTE: "FAIR" INDICATES FEW OR NO CLOUDS BELOW 12,000 FEET WITH NO
SIGNIFICANT WEATHER AND/OR NO OBSTRUCTIONS TO VISIBILITY.

NYZ032-033-038>043-046>054-057>066-NYZ062>081-082-084-192200-
EAST


CITY           SKY/WX    TMP DP  RH WIND       PRES   REMARKS
ALBANY         PTSUNNY   42  26  53 NW20G32   29.78F
GLENS FALLS    CLOUDY    41  28  60 W9        29.77R
POUGHKEEPSIE   CLOUDY    42  32  67 W13G28    29.79R
NEWBURGH       PTSUNNY   43  32  65 NW17      29.79R
MONTGOMERY     CLOUDY    43  28  55 NW23G31   29.79R
WHITE PLAINS   LGT RAIN  42  35  76 NW10      29.78R
ISLIP          CLOUDY    42  39  89 NW14      29.78R
NEW YORK CITY  PTSUNNY   47  35  63 W8G17     29.80R
CENTRAL PARK   CLOUDY    45  35  68 NW9       29.82R
$$

NYZ005>009-017-018-044>046-055-056-192200-
CENTRAL


CITY           SKY/WX    TMP DP  RH WIND       PRES   REMARKS
FULTON         LGT SNOW  36  29  75 NW15      29.92R WCI  27
SYRACUSE       LGT SNOW  34  33  96 W13       29.92R FOG     WCI  25
ROME           PTSUNNY   37  29  72 W18       29.88R WCI  27
ELMIRA         LGT SNOW  38  27  64 NW16G28   29.93R WCI  29
BINGHAMTON     CLOUDY    32  25  75 NW14G23   29.86R WCI  22
MONTICELLO     LGT RAIN  36  26  67 NW16G23   29.81R WCI  26
$$

NYZ026>034-041>043-087-192200-
NORTH


CITY           SKY/WX    TMP DP  RH WIND       PRES   REMARKS
WATERTOWN      CLOUDY    36  30  79 NW12      29.91R WCI  28
FORT DRUM      NOT AVBL
OGDENSBURG     LGT SNOW  36  28  73 NW13G18   29.89R WCI  28
MASSENA        CLOUDY    38  29  70 W13       29.86R WCI  30
SARANAC LAKE   LGT SNOW  30  27  88 VRB3      29.75R FOG
PLATTSBURGH    CLOUDY    41  27  57 NW12G17   29.79R
$$

NYZ001>004-010>016-019>021-085-192200-
WEST


CITY           SKY/WX    TMP DP  RH WIND       PRES   REMARKS
NIAGARA FALLS  CLOUDY    39  24  55 NW20G26   30.04R WCI  29
BUFFALO        FLURRIES  36  27  69 NW18G24   30.02R WCI  26
DUNKIRK        CLOUDY    37  28  70 NW15G22   30.07R WCI  28
JAMESTOWN      CLOUDY    33  26  75 NW22G28   30.01R WCI  21
WELLSVILLE     FLURRIES  32  25  75 NW23G31   29.94R WCI  19
ROCHESTER      FLURRIES  37  24  59 NW18G30   29.98R WCI  27
PENN YAN       SNOW      33  27  78 NW12G25   29.95R VSB 1/2 WCI  24
$$

             KEY
       WCI = WIND CHILL INDEX
       VSB = VISIBILITY
       HX  = HEAT INDEX
$$




USA.gov is the U.S. government's official web portal to all federal, state and local government web resources and services.